• In Hungary
  • List of Countries
  • For 7 days
  • Water Temperature
  • Satellite Maps
  • Weather Map
  • News
  • Weather Widgets
  • user-avatar
    Login

    Hourly Weather Klagenfurt

    Today, 21 October, Saturday

    Time Temperature Precipitation Wind Pressure Humidity
    00:00 +8°C° 0 mm 1 mps 691 mmHg 86%
    01:00 +8°C° 0 mm 1 mps 691 mmHg 87%
    02:00 +8°C° 0 mm 1 mps 691 mmHg 87%
    03:00 +8°C° 0 mm 1 mps 691 mmHg 87%
    04:00 +8°C° 0 mm 1 mps 691 mmHg 87%
    05:00 +8°C° 0 mm 1 mps 691 mmHg 86%
    06:00 +7°C° 0 mm 1 mps 691 mmHg 86%
    07:00 +7°C° 0 mm 1 mps 691 mmHg 86%
    08:00 +10°C° 0 mm 1 mps 691 mmHg 77%
    09:00 +13°C° 0 mm 1 mps 692 mmHg 68%
    10:00 +15°C° 0 mm 1 mps 692 mmHg 59%
    11:00 +16°C° 0 mm 1 mps 692 mmHg 56%
    12:00 +18°C° 0 mm 1 mps 692 mmHg 53%
    13:00 +19°C° 0 mm 1 mps 692 mmHg 51%
    14:00 +18°C° 0 mm 1 mps 692 mmHg 56%
    15:00 +16°C° 0 mm 1 mps 692 mmHg 62%
    16:00 +15°C° 0 mm 1 mps 691 mmHg 68%
    17:00 +13°C° 0 mm 1 mps 691 mmHg 75%
    18:00 +12°C° 0 mm 1 mps 691 mmHg 82%
    19:00 +10°C° 0 mm 1 mps 690 mmHg 89%
    20:00 +10°C° 0 mm 1 mps 690 mmHg 90%
    21:00 +9°C° 0 mm 1 mps 690 mmHg 91%
    22:00 +9°C° 0 mm 1 mps 690 mmHg 92%
    23:00 +9°C° 0 mm 1 mps 690 mmHg 92%

    Tomorrow, 22 October, Sunday

    Time Temperature Precipitation Wind Pressure Humidity
    00:00 +9°C° 0 mm 1 mps 690 mmHg 92%
    01:00 +9°C° 0 mm 1 mps 689 mmHg 92%
    02:00 +8°C° 0 mm 1 mps 689 mmHg 92%
    03:00 +8°C° 0 mm 1 mps 689 mmHg 91%
    04:00 +8°C° 0 mm 1 mps 689 mmHg 91%
    05:00 +8°C° 0 mm 1 mps 689 mmHg 91%
    06:00 +8°C° 0 mm 1 mps 689 mmHg 90%
    07:00 +8°C° 0 mm 1 mps 689 mmHg 89%
    08:00 +10°C° 0.4 mm 1 mps 689 mmHg 86%
    09:00 +11°C° 0.4 mm 1 mps 689 mmHg 83%
    10:00 +12°C° 0.4 mm 1 mps 689 mmHg 79%
    11:00 +12°C° 2.3 mm 1 mps 688 mmHg 84%
    12:00 +11°C° 2.3 mm 1 mps 688 mmHg 88%
    13:00 +11°C° 2.3 mm 1 mps 688 mmHg 93%
    14:00 +10°C° 3.1 mm 1 mps 687 mmHg 94%
    15:00 +10°C° 3.1 mm 1 mps 687 mmHg 94%
    16:00 +8°C° 3.1 mm 2 mps 687 mmHg 95%
    17:00 +8°C° 2.4 mm 2 mps 687 mmHg 95%
    18:00 +7°C° 2.4 mm 2 mps 687 mmHg 95%
    19:00 +7°C° 2.4 mm 2 mps 688 mmHg 95%
    20:00 +6°C° 0.7 mm 2 mps 688 mmHg 93%
    21:00 +6°C° 0.7 mm 2 mps 688 mmHg 92%
    22:00 +6°C° 0.7 mm 2 mps 688 mmHg 91%
    23:00 +5°C° 0 mm 2 mps 688 mmHg 90%

    Day after tomorrow, 23 October, Monday

    Time Temperature Precipitation Wind Pressure Humidity
    00:00 +5°C° 0 mm 2 mps 687 mmHg 90%
    01:00 +5°C° 0 mm 2 mps 687 mmHg 89%
    02:00 +5°C° 0 mm 2 mps 687 mmHg 89%
    03:00 +4°C° 0 mm 2 mps 687 mmHg 89%
    04:00 +5°C° 0 mm 1 mps 687 mmHg 89%
    05:00 +5°C° 0 mm 1 mps 687 mmHg 88%
    06:00 +5°C° 0 mm 1 mps 687 mmHg 88%
    07:00 +5°C° 0 mm 1 mps 687 mmHg 88%
    08:00 +5°C° 0 mm 2 mps 687 mmHg 81%
    09:00 +6°C° 0 mm 2 mps 688 mmHg 74%
    10:00 +8°C° 0 mm 2 mps 688 mmHg 67%
    11:00 +9°C° 0 mm 3 mps 688 mmHg 61%
    12:00 +9°C° 0 mm 3 mps 688 mmHg 55%
    13:00 +10°C° 0 mm 4 mps 688 mmHg 49%
    14:00 +10°C° 0 mm 3 mps 688 mmHg 53%
    15:00 +9°C° 0 mm 3 mps 688 mmHg 57%
    16:00 +8°C° 0 mm 2 mps 688 mmHg 61%
    17:00 +7°C° 0 mm 2 mps 689 mmHg 64%
    18:00 +6°C° 0 mm 2 mps 689 mmHg 68%
    19:00 +5°C° 0 mm 1 mps 689 mmHg 72%
    20:00 +5°C° 0 mm 1 mps 689 mmHg 72%
    21:00 +5°C° 0 mm 1 mps 689 mmHg 73%
    22:00 +5°C° 0 mm 1 mps 689 mmHg 74%
    23:00 +5°C° 0 mm 1 mps 689 mmHg 75%

    24 October, Tuesday

    Time Temperature Precipitation Wind Pressure Humidity
    00:00 +4°C° 0 mm 1 mps 689 mmHg 77%
    01:00 +4°C° 0 mm 1 mps 690 mmHg 78%
    02:00 +4°C° 0 mm 1 mps 690 mmHg 78%
    03:00 +4°C° 0 mm 1 mps 690 mmHg 79%
    04:00 +3°C° 0 mm 2 mps 690 mmHg 79%
    05:00 +3°C° 0 mm 2 mps 690 mmHg 79%
    06:00 +3°C° 0 mm 2 mps 690 mmHg 79%
    07:00 +3°C° 0 mm 2 mps 690 mmHg 79%
    08:00 +6°C° 0 mm 2 mps 691 mmHg 71%
    09:00 +8°C° 0 mm 3 mps 692 mmHg 63%
    10:00 +10°C° 0 mm 3 mps 692 mmHg 54%
    11:00 +11°C° 0 mm 4 mps 692 mmHg 52%
    12:00 +11°C° 0 mm 4 mps 693 mmHg 50%
    13:00 +12°C° 0 mm 4 mps 693 mmHg 48%
    14:00 +11°C° 0 mm 4 mps 693 mmHg 52%
    15:00 +10°C° 0 mm 3 mps 693 mmHg 56%
    16:00 +10°C° 0 mm 3 mps 693 mmHg 61%
    17:00 +8°C° 0 mm 2 mps 693 mmHg 66%
    18:00 +6°C° 0 mm 2 mps 694 mmHg 72%
    19:00 +5°C° 0 mm 2 mps 694 mmHg 77%
    20:00 +4°C° 0 mm 2 mps 694 mmHg 79%
    21:00 +4°C° 0 mm 2 mps 694 mmHg 81%
    22:00 +3°C° 0 mm 2 mps 695 mmHg 83%
    23:00 +3°C° 0 mm 2 mps 695 mmHg 84%

    25 October, Wednesday

    Time Temperature Precipitation Wind Pressure Humidity
    00:00 +4°C° 0 mm 1 mps 695 mmHg 85%
    01:00 +4°C° 0 mm 1 mps 695 mmHg 86%
    02:00 +3°C° 0 mm 1 mps 695 mmHg 86%
    03:00 +3°C° 0 mm 1 mps 695 mmHg 86%
    04:00 +3°C° 0 mm 1 mps 695 mmHg 86%
    05:00 +3°C° 0 mm 1 mps 695 mmHg 85%
    06:00 +3°C° 0 mm 1 mps 695 mmHg 85%
    07:00 +3°C° 0 mm 1 mps 695 mmHg 84%
    08:00 +6°C° 0 mm 1 mps 695 mmHg 75%
    09:00 +8°C° 0 mm 1 mps 696 mmHg 66%
    10:00 +11°C° 0 mm 1 mps 697 mmHg 57%
    11:00 +12°C° 0 mm 1 mps 696 mmHg 55%
    12:00 +13°C° 0 mm 1 mps 696 mmHg 52%
    13:00 +14°C° 0 mm 2 mps 696 mmHg 49%
    14:00 +13°C° 0 mm 2 mps 696 mmHg 54%
    15:00 +12°C° 0 mm 2 mps 696 mmHg 60%
    16:00 +11°C° 0 mm 1 mps 696 mmHg 65%
    17:00 +9°C° 0 mm 1 mps 696 mmHg 72%
    18:00 +7°C° 0 mm 1 mps 696 mmHg 78%
    19:00 +6°C° 0 mm 1 mps 697 mmHg 85%
    20:00 +5°C° 0 mm 1 mps 697 mmHg 85%
    21:00 +4°C° 0 mm 1 mps 697 mmHg 86%
    22:00 +4°C° 0 mm 1 mps 697 mmHg 86%
    23:00 +3°C° 0 mm 1 mps 697 mmHg 86%

    26 October, Thursday

    Time Temperature Precipitation Wind Pressure Humidity
    00:00 +3°C° 0 mm 1 mps 698 mmHg 87%
    01:00 +3°C° 0 mm 1 mps 698 mmHg 87%
    02:00 +3°C° 0 mm 1 mps 698 mmHg 87%
    03:00 +2°C° 0 mm 1 mps 698 mmHg 87%
    04:00 +2°C° 0 mm 1 mps 698 mmHg 87%
    05:00 +2°C° 0 mm 1 mps 698 mmHg 87%
    06:00 +2°C° 0 mm 1 mps 698 mmHg 86%
    07:00 +2°C° 0 mm 1 mps 698 mmHg 86%
    08:00 +4°C° 0 mm 1 mps 699 mmHg 74%
    09:00 +7°C° 0 mm 1 mps 699 mmHg 62%
    10:00 +9°C° 0 mm 1 mps 699 mmHg 51%
    11:00 +11°C° 0 mm 1 mps 699 mmHg 46%
    12:00 +12°C° 0 mm 1 mps 699 mmHg 42%
    13:00 +13°C° 0 mm 1 mps 699 mmHg 37%
    14:00 +12°C° 0 mm 1 mps 699 mmHg 43%
    15:00 +11°C° 0 mm 1 mps 699 mmHg 48%
    16:00 +10°C° 0 mm 1 mps 698 mmHg 54%
    17:00 +8°C° 0 mm 1 mps 698 mmHg 58%
    18:00 +6°C° 0 mm 1 mps 698 mmHg 61%
    19:00 +4°C° 0 mm 1 mps 698 mmHg 65%
    20:00 +3°C° 0 mm 1 mps 699 mmHg 64%
    21:00 +3°C° 0 mm 1 mps 699 mmHg 63%
    22:00 +3°C° 0 mm 1 mps 699 mmHg 62%
    23:00 +3°C° 0 mm 1 mps 699 mmHg 61%
    Show more